User: anonymous   Login
Location: Hamburg
(53.5500°N, 10.0000°E)
Time: 00:31:51
(UTC+02:00)
Language:

Iridium 10 - Orbit

View from above orbital plane
View from above orbital plane
View from above satellite
View from above satellite

Ground track
Ground track

The orbit data is extracted from the following two-line orbital elements,

1 24839U 97030D   16269.46114311 -.00000027  00000-0 -16830-4 0  9993
2 24839  86.3919 100.7638 0001920  82.8419 337.4262 14.34216173  9012
Epoch (UTC): 25 September 2016 11:04:02
Eccentricity: 0.0001920
inclination: 86.3919°
perigee height: 776 km
apogee height: 779 km
right ascension of ascending node: 100.7638°
argument of perigee: 82.8419°
revolutions per day: 14.34216173
mean anomaly at epoch: 337.4262°
orbit number at epoch: 901

The dashed part of the orbit path shows where the satellite is in the earth's shadow,  

DLR